Погода в Евлахе

Погода в Евлахе : погода сейчас, прогноз погоды и архив. Всё, что Вы хотите узнать о погоде в Евлахе!

Поиск расширенной информации на нашем сайте:

Другие новости

Новости СМИ2

Главная страница сайта

Новости сайта

02.10.2013

Напоминаем, что на нашем новом сайте вы можете получить высокодетализированные прогнозы погоды по пунктам России, СНГ и мира (включающие важные для авиации метеовеличины, такие как направление и скорость ветра, видимость, явления погоды, количество и форма облачности, нижняя и верхняя граница облачности), а также ознакомиться с разнообразными материалами по авиационной метеорологии и подборкой полезных ссылок на эту тему.

Сайт Метеоцентр.Азия посвящён разработке технологий оптимизации авиаметеорологического обслуживания, включая проектирование и перспективное создание нескольких автоматизированных авиаметеорологических систем:
- система выпуска высокодетальных прогностических карт явлений погоды для нижнего воздушного пространства по России и ближнему зарубежью;
- система верификации прогнозов TAF (выпускаемых синоптиками официальных АМСГ РФ и ближнего зарубежья) и AUTOTAF (выпускаемых сайтом Метеоцентр.Азия) - выявление ошибок, онлайн-сопоставление с фактической погодой METAR, автоматическое внесение коррективов в прогнозы при резком отклонении фактической погоды от прогноза, подсчёт оправдываемости прогнозов по элементам и в целом;
- система обработки, анализа и отображения авиаметеорологической информации для применения провайдерами метеорологической информации.


Погода в Евлахе - сегодня

Время (UTC), дата Ветер
(°,м/с) 
Видим.   Явления Облачность Т
(°С)
Тd
(°С)
f(%) Тe
(°С)
Pmin
(гПа)
dP
(гПа)
Po
(мм)
O2
(г/м3)
Тmin Tmax R s Состояние
почвы
06 21.01.17 050 (СВ) 0050 м  туман  н/о 
+0.7 +0.1 96 1025.4  0.6  768  309           
09 21.01.17 200 (Ю) 4000 м  дымка{туман}  5/0 средняя 
[Ac trans]
+3.4 +2.7 95 +4  1024.9  -0.5  767  305           
12 21.01.17 130 (ЮВ) 20000 м  {туман}  ясно 
+9 -0.7 51 +10  1022.4  -2.4  765  299           
15 21.01.17 150 (ЮВ) 20000 м    ясно 
+5.3 +0.4 71 +6  1022.7  0.3  766  303           
21 21.01.17 340 (С) 20000 м    ясно 
+3.2 -3.6 61 +1  1024.1  0.1  767  306           
00 22.01.17 320 (СЗ) 10  20000 м    ясно 
+2.8 -3.8 62 -1  1023.2  -0.9  766  306           
03 22.01.17 030 (СВ) 20000 м    ясно 
+2.4 -3.9 63 -1  1022.8  -0.4  766  306           
09 22.01.17 010 (С) 11  20000 м    ясно 
+9.2 -5.7 34 +6  1022.4  -0.9  765  299           
12 22.01.17 020 (С) 20000 м    ясно 
+10.5 -6.4 30 +9  1021.9  -0.5  765  298           
15 22.01.17 340 (С) 20000 м    ясно средняя 
[Ac trans]
+8.3 -6 36 +8  1024.9  767  301           
21 22.01.17 180 (Ю) 20000 м    10/4 600 м средняя 
[Sc|Ac trans]
+4.1 -2.7 61 +2  1031.1  772  307           
00 23.01.17 130 (ЮВ) 20000 м    10/4 600 м средняя 
[Sc|Ac trans]
+2 -2 75 +1  1032.1  0.9  773  309           
03 23.01.17 130 (ЮВ) 20000 м    10/4 600 м средняя 
[Sc|Ac trans]
+2 -2.3 73 +1  1032.2  0.1  773  309           
06 23.01.17 140 (ЮВ) 20000 м    8/4 600 м средняя 
[Sc|Ac trans]
+2.6 -2.3 70 +2  1033.2  773  309           
09 23.01.17 340 (С) 20000 м    3/3 600 м 
[Cu hum]
+5.8 -1.8 58 +4  1032.1  -1.1  773  305           
12 23.01.17 200 (Ю) 20000 м    ясно 
+7.6 -2.7 48 +7  1029.9  -2.1  771  303           
15 23.01.17 190 (Ю) 20000 м    ясно 
+5.7 -2 58 +5  1030.3  0.4  771  305           
18 23.01.17 150 (ЮВ) 20000 м    ясно 
+2.4 -2.2 72 +3  1032.1  1.7  773  309    +8.5       
21 23.01.17 120 (ЮВ) 20000 м    ясно 
-1.5 -3.4 87 -2  1033  0.9  773  314           
00 24.01.17 040 (СВ) 20000 м    ясно 
-3.7 -5.1 90 -3  1033.8  0.8  774  317           
03 24.01.17 270 (З) 20000 м    ясно 
-3.3 -4.7 90 -4  1033.4  -0.4  774  316           
06 24.01.17 340 (С) 20000 м    ясно 
-0.4 -2.5 86 -1  1034  0.6  774  313           
09 24.01.17 050 (СВ) 20000 м    ясно 
+6.2 -2 56 +6  1032.4  -1.6  773  305           
12 24.01.17 020 (С) 20000 м    ясно 
+9.1 -4.1 39 +9  1029.1  -3.2  770  301           
15 24.01.17 тихо ()   20000 м    ясно 
+5.2 -3 55 +5  1028  -1.1  770  305           
Время (UTC), дата Ветер
(°,м/с) 
Видим.   Явления Облачность Т
(°С)
Тd
(°С)
f(%) Тe
(°С)
Pmin
(гПа)
dP
(гПа)
Po
(мм)
O2
(г/м3)
Тmin Tmax R s Состояние
почвы

Для получения пояснительной информации подведите курсор к названию столбца.

ПОГОДА в Евлахе - архив

Всё, что Вы хотите узнать о погоде в Евлахе - удобно и подробно!

Выберите нужную дату (начиная с 1 января 2015* года) и нажмите кнопку "Найти".
Будут отображены архивные сводки погоды по пункту Евлах, начиная с указанной даты.


Отображать данные в формате CSV (для использования в таблицах Excel)


Внимание! Наш архив погоды предназначен исключительно для личного некоммерческого использования в познавательных целях. Если Вам необходимы официальные справки о состоянии погоды (для производственных, юридических, коммерческих и т.п. целей), обращайтесь в органы Росгидромета.

*Примечание: данная дата относится к архиву по метеостанциям СССР (Россия, СНГ, Балтия).
Архив по метеостанциям Зарубежной Европы и Азии (кроме Китая) хранится 10 дней, по другим регионам земного шара (Китай, Африка, Америка, Австралия, Океания) - 1 день.

Евлах - район местоположения метеостанции


Название, широта, долгота, высота метеостанции:
Евлах (АМСГ) 40.6°ш. 47.2°д. 15 м над ур. моря [Азербайджан]

Дополнительная информация

В oтличие oт бoльшинства пoгoдных сайтoв мы публикуем пoдрoбную метеoинфoрмацию в детальнoм прoфессиoнальнoм фoрмате.

Характеристики температуры и влажнoсти вoздуха измеряются на высoте 2 м в тени вдали oт зданий и деревьев.
Скoрoсть ветра измеряется на высoте 10 м (на урoвне рoста челoвека скoрoсть ветра ниже в 1.5-2 раза). Если метеoстанция нахoдится в гoрoде или в лесу, тo скoрoсть ветра занижена на 2-4 м/с пo сравнению с oткрытым местoм. Скoрoсть ветра над акватoриями крупных рек и oзёр, а также на вершинах хoлмoв на 2-5 м/с выше, чем в oбычных услoвиях.
Атмoсфернoе давление в разных тoчках местнoсти мoжет значительнo oтличаться oт давления на метеoстанции, в зависимoсти oт услoвий рельефа (при пoдъёме на 10 м давление пoнижается примернo на 1 мм рт.ст.).